Regional Weather Roundup
Issued by NWS

Home | Current Version | Previous Version | Graphics & Text | Print | Product List | Glossary On
Versions: 1 2 3 4 5 6 7 8 9 10 11 12 13 14 15 16 17 18 19 20 21 22 23 24 25 26 27 28 29 30 31 32 33 34 35 36 37 38 39 40 41 42 43 44 45 46 47 48 49 50
000
ASUS43 KOAX 021210
RWRNE

WEATHER ROUNDUP FOR NEBRASKA
NATIONAL WEATHER SERVICE OMAHA NE
700 AM CDT THU JUL 02 2015

NOTES: SATELLITE DATA IS BEING USED TO AUGMENT CLOUD COVER ABOVE
       12000 FEET.
       "FAIR" INDICATES FEW OR NO CLOUDS BELOW 12,000 FEET WITH NO
       SIGNIFICANT WEATHER AND/OR OBSTRUCTIONS TO VISIBILITY.

  * THESE STATIONS DO NOT REPORT WEATHER SUCH AS RAIN...SNOW OR FOG.

NEZ001>004-019>022-054>056-021300-
NEBRASKA PANHANDLE

CITY           SKY/WX    TMP DP  RH WIND       PRES   REMARKS
SCOTTSBLUFF    CLOUDY    61  50  68 S6        30.12S
6HR MIN TEMP:  60; 6HR MAX TEMP:  69; 6HR PCP:  0.08;

ALLIANCE       PTCLDY    57  56  96 W7        30.09R
6HR MIN TEMP:  57; 6HR MAX TEMP:  71; 6HR PCP:  0.71;

CHADRON        CLEAR     60  57  89 W12       30.07R
6HR MIN TEMP:  59; 6HR MAX TEMP:  63; 6HR PCP:  0.64;

SIDNEY         CLOUDY    58  57  97 S9        30.13F
6HR MIN TEMP:  57; 6HR MAX TEMP:  64; 6HR PCP:  0.18;

$$

NEZ057>060-069>072-079>082-021300-
SOUTHWEST NEBRASKA

CITY           SKY/WX    TMP DP  RH WIND       PRES   REMARKS
NORTH PLATTE   CLOUDY    62  60  93 W3        30.03F
6HR MIN TEMP:  62; 6HR MAX TEMP:  72; 6HR PCP:  0.11;

IMPERIAL       CLOUDY    61  57  87 NE12      30.07F
6HR MIN TEMP:  61; 6HR MAX TEMP:  76; 6HR PCP:  0.03;

MCCOOK         CLOUDY    65  58  78 N22G32    30.03F
6HR MIN TEMP:  63; 6HR MAX TEMP:  78; 6HR PCP:  0.24;

$$

NEZ005>010-023>029-035>040-094-021300-
NORTH CENTRAL NEBRASKA

CITY           SKY/WX    TMP DP  RH WIND       PRES   REMARKS
VALENTINE      CLOUDY    63  61  93 W6        29.98R
6HR MIN TEMP:  63; 6HR MAX TEMP:  67; 6HR PCP:  0.03;

BROKEN BOW     LGT RAIN  68  58  70 SW18G25   29.93F
6HR MIN TEMP:  65; 6HR MAX TEMP:  70; 6HR PCP:  0.03;

$$

NEZ041-046>049-061>064-073>077-083>087-021300-
SOUTH CENTRAL NEBRASKA

CITY           SKY/WX    TMP DP  RH WIND       PRES   REMARKS
GRAND ISLAND   CLOUDY    68  67  96 SE5       29.97R FOG
6HR MIN TEMP:  68; 6HR MAX TEMP:  70;

HASTINGS       FOG       69  68  96 CALM      29.97R VSB 3/4
6HR MIN TEMP:  69; 6HR MAX TEMP:  71;

KEARNEY *      CLOUDY    70  66  88 CALM      30.00R VSB 3/4
$$

NEZ011>018-030>034-042>045-021300-
NORTHEAST NEBRASKA

CITY           SKY/WX    TMP DP  RH WIND       PRES   REMARKS
NORFOLK        RAIN      62  61  96 CALM      29.97R FOG
6HR MIN TEMP:  62; 6HR MAX TEMP:  68; 6HR PCP:  0.33;

COLUMBUS *     CLOUDY    64  57  77 E5        29.95S
TEKAMAH        CLOUDY    63  58  83 E5        29.97R
6HR MIN TEMP:  62; 6HR MAX TEMP:  68;

$$

NEZ050>053-065>068-078-088>093-021300-
SOUTHEAST NEBRASKA

CITY           SKY/WX    TMP DP  RH WIND       PRES   REMARKS
LINCOLN        CLOUDY    67  64  90 E8        29.94F FOG
6HR MIN TEMP:  67; 6HR MAX TEMP:  71;

OMAHA EPPLEY   CLOUDY    64  59  83 E6        29.96R
6HR MIN TEMP:  64; 6HR MAX TEMP:  70;

FALLS CITY     CLOUDY    69  67  93 NE5       29.92R FOG
6HR MIN TEMP:  68; 6HR MAX TEMP:  72;

$$

NEZ044-045-051>053-067-021300-
OMAHA AREA

CITY           SKY/WX    TMP DP  RH WIND       PRES   REMARKS
OMAHA EPPLEY   CLOUDY    64  59  83 E6        29.96R
6HR MIN TEMP:  64; 6HR MAX TEMP:  70;

OFFUTT AFB     PTSUNNY   64  59  82 E6        29.95R
$$



USA.gov is the U.S. government's official web portal to all federal, state and local government web resources and services.